OPS 4682 DEB, 38415

Orbit data source: Space-Track

OPS 4682 DEB, 38415 is space debris in LEO originally from a launch on Sat, 03 Apr 1965 UTC launched from the Air Force Western Test Range (AFWTR). Debris objects in space refer to the collection of defunct objects orbiting the Earth. Examples of debris include non-operational satellites, rocket bodies, and fragments generated from explosions, collisions, or faulty payload assembly.

Loading next visibility...
Identifier
38415, 1965-027DU
Orbit
LEO
Country
Flag of USUS
Related business
Manufacturer
Unknown
Mission
Spacecraft
Bus & Motor
Unknown
Mass
Unknown
Launch date (UTC)
1965-04-03 (61 years ago)
Launch vehicle
Unknown
Launch site
Air Force Western Test Range (AFWTR)
Object type
Payload
Rocket body
Debris
Shape & HBR
Unknown shape, 0.1 m
Radar Cross Section
Medium (>0.1 m² and <1 m²)

Expand to show TLE details & history
Last TLE update: 22 hours ago

TLE from 22 hours ago
0 OPS 4682 DEB
1 38415U 65027DU  26149.59129155  .00000397  00000-0  12501-2 0  9990
2 38415  90.2468  14.0961 0029204 157.6635 202.5767 13.02387166612514
Epoch: 2026-05-29T14:11Z
TLE epoch observation values (Epoch: 2026-05-29T14:11:27.589Z)
Latitude
-0.00009°
Longitude
-85.88833°
Altitude
1,276.226 km
Speed
7.208 km/s
True Right ascension
00h 56m 23s
True Declination
0° 00' 00"
Sunlit
Object was in daylight at epoch
Visualization orbit readout
Latitude
Unknown
Longitude
Unknown
Altitude
Unknown
Speed
Unknown
Apparent Right ascension
Unknown
Apparent Declination
Unknown
Sunlit
N/A
Visualization observer readout
Local Sidereal Time
22:05:14
Azimuth
Unknown
Elevation
Unknown
Doppler factor
Unknown
Orbital elements
Apogee altitude
1,272.148 km
Perigee altitude
1,227.594 km
Semi-major axis
7,628.008 km
Eccentricity
0.00292
Inclination
90.2468°
RAAN
14.0961°
Arg. of periapsis
157.6635°
True anomaly
202.44865°
Mean anomaly
202.5767°
Eccentric anomaly
202.51263°
Mean motion
3.25782 °/min
Orbital period
110.5 mins
BSTAR
0.0012501
Loading maneuver chart data...
Computing Atmospheric mass density...
Loading historical data...
Loading historical data...
Loading historical data...
Loading historical data...
Loading historical data...
Loading historical data...
Loading historical data...

Documentation

Showing up to 5 results
|